FW6365 Weather Reports


Display with metric or nautical units.
time (UTC)temp
F
wind
direction
speed
MPH
gust
MPH
rain 1hr
in
rain 24hr
in
rain mn
in
humidity
%
barometer
mb
20260831204550 74 349 9.0 15.0 0.00 0.00 0.00 58 1010.8
20260831204034 74 22 6.0 12.0 0.00 0.00 0.00 59 1010.8
20260831203530 73 33 4.0 14.0 0.00 0.00 0.00 60 1010.8
20260831203052 73 30 8.0 14.0 0.00 0.00 0.00 60 1010.9
20260831202528 73 325 6.0 13.0 0.00 0.00 0.00 60 1010.8
20260831202029 73 331 3.0 11.0 0.00 0.00 0.00 60 1010.9
20260831201550 72 351 7.0 11.0 0.00 0.00 0.00 59 1011.0
20260831201026 72 50 4.0 13.0 0.00 0.00 0.00 63 1011.2
20260831200525 72 108 7.0 13.0 0.00 0.00 0.00 62 1011.3
20260831200108 71 17 7.0 13.0 0.00 0.00 0.00 62 1011.4
20260831195528 71 350 8.0 16.0 0.00 0.00 0.00 62 1011.5
20260831195028 71 19 7.0 16.0 0.00 0.00 0.00 62 1011.6
20260831194615 71 333 4.0 11.0 0.00 0.00 0.00 63 1011.5
20260831194027 70 34 5.0 17.0 0.00 0.00 0.00 64 1011.7
20260831193528 70 329 7.0 17.0 0.00 0.00 0.00 64 1011.8
20260831193053 71 323 8.0 13.0 0.00 0.00 0.00 63 1011.9
20260831192524 70 331 7.0 14.0 0.00 0.00 0.00 64 1012.0
20260831192028 71 348 5.0 14.0 0.00 0.00 0.00 65 1012.0
20260831191553 70 151 2.0 15.0 0.00 0.00 0.00 67 1012.0
20260831191024 69 318 5.0 15.0 0.00 0.00 0.00 66 1012.1
20260831190524 69 316 7.0 15.0 0.00 0.00 0.00 68 1012.1
20260831185524 68 331 8.0 14.0 0.00 0.00 0.00 68 1012.3
20260831185023 68 308 9.0 15.0 0.00 0.00 0.00 68 1012.3
20260831184559 68 346 6.0 15.0 0.00 0.00 0.00 71 1012.4
20260831184028 68 341 5.0 11.0 0.00 0.00 0.00 70 1012.4
20260831183527 68 105 5.0 13.0 0.00 0.00 0.00 70 1012.4
20260831183051 68 117 5.0 13.0 0.00 0.00 0.00 71 1012.3
20260831182524 68 340 6.0 13.0 0.00 0.00 0.00 70 1012.5
20260831182025 67 67 5.0 16.0 0.00 0.00 0.00 71 1012.6
20260831181551 67 71 6.0 16.0 0.00 0.00 0.00 73 1012.6
20260831181028 67 18 4.0 14.0 0.00 0.00 0.00 73 1012.6
20260831180528 67 23 7.0 14.0 0.00 0.00 0.00 72 1012.7
20260831180050 67 342 4.0 13.0 0.00 0.00 0.00 73 1012.8
20260831175527 67 323 6.0 13.0 0.00 0.00 0.00 73 1012.8
20260831175029 67 49 6.0 14.0 0.00 0.00 0.00 72 1012.7
20260831174554 66 311 4.0 14.0 0.00 0.00 0.00 74 1012.8
20260831174028 66 21 6.0 13.0 0.00 0.00 0.00 74 1012.9
20260831173524 66 346 4.0 13.0 0.00 0.00 0.00 76 1012.9
20260831173053 65 96 4.0 13.0 0.00 0.00 0.00 76 1013.0
20260831172524 65 344 3.0 14.0 0.00 0.00 0.00 78 1013.1
20260831172028 64 345 6.0 14.0 0.00 0.00 0.00 77 1013.1
20260831171548 64 320 4.0 13.0 0.00 0.00 0.00 77 1013.1
20260831171028 64 57 6.0 13.0 0.00 0.00 0.00 77 1013.2
20260831170525 64 341 4.0 13.0 0.00 0.00 0.00 78 1013.2
20260831170047 63 67 5.0 13.0 0.00 0.00 0.00 80 1013.1
20260831165528 63 337 8.0 13.0 0.00 0.00 0.00 80 1013.2
20260831165027 63 339 4.0 12.0 0.00 0.00 0.00 82 1013.2
20260831164600 62 90 5.0 11.0 0.00 0.00 0.00 82 1013.3
20260831164024 63 19 5.0 11.0 0.00 0.00 0.00 82 1013.3
20260831163527 62 323 4.0 9.0 0.00 0.00 0.00 84 1013.4
20260831163052 62 9 4.0 9.0 0.00 0.00 0.00 86 1013.6
20260831162533 62 36 4.0 11.0 0.00 0.00 0.00 86 1013.6
20260831162028 61 343 4.0 11.0 0.00 0.00 0.00 88 1013.5
20260831161549 61 360 4.0 14.0 0.00 0.00 0.00 89 1013.7
20260831161030 60 35 4.0 14.0 0.00 0.00 0.00 91 1013.7
20260831160528 60 9 3.0 9.0 0.00 0.00 0.00 94 1013.6
20260831160103 59 338 3.0 9.0 0.00 0.00 0.00 95 1013.7
20260831155530 58 23 4.0 9.0 0.00 0.00 0.00 96 1013.8
20260831155030 58 328 2.0 9.0 0.00 0.00 0.00 97 1013.8
20260831154656 57 13 2.0 8.0 0.00 0.00 0.00 98 1013.9
20260831154025 57 347 2.0 5.0 0.00 0.00 0.00 98 1013.9
20260831153528 56 13 2.0 5.0 0.00 0.00 0.00 99 1014.0
20260831153050 55 333 2.0 5.0 0.00 0.00 0.00 99 1013.9
20260831152524 54 327 1.0 2.0 0.00 0.00 0.00 98 1014.0
20260831152025 53 11 0.0 2.0 0.00 0.00 0.00 98 1014.0
20260831151556 51 20 0.0 1.0 0.00 0.00 0.00 98 1014.1
20260831151023 50 0 0.0 0.0 0.00 0.00 0.00 98 1014.1
20260831150525 50 0 0.0 0.0 0.00 0.00 0.00 98 1014.1
20260831150055 50 0 0.0 0.0 0.00 0.00 0.00 98 1014.3
20260831145530 49 0 0.0 0.0 0.00 0.00 0.00 98 1014.3
20260831145024 48 0 0.0 0.0 0.00 0.00 0.00 98 1014.2
20260831144547 48 0 0.0 0.0 0.00 0.00 0.00 98 1014.2
20260831144024 47 0 0.0 0.0 0.00 0.00 0.00 98 1014.3
20260831143526 46 0 0.0 0.0 0.00 0.00 0.00 98 1014.4
20260831143109 45 0 0.0 0.0 0.00 0.00 0.00 98 1014.2
20260831142527 45 0 0.0 0.0 0.00 0.00 0.00 98 1014.2
20260831142023 45 0 0.0 0.0 0.00 0.00 0.00 98 1014.1
20260831141610 45 0 0.0 0.0 0.00 0.00 0.00 98 1014.2
20260831141024 45 0 0.0 0.0 0.00 0.00 0.00 98 1014.3
20260831140527 45 0 0.0 0.0 0.00 0.00 0.00 98 1014.3
20260831140055 44 0 0.0 0.0 0.00 0.00 0.00 97 1014.1
20260831135528 44 0 0.0 0.0 0.00 0.00 0.00 97 1014.2
20260831135028 45 0 0.0 0.0 0.00 0.00 0.00 97 1014.2
20260831134546 45 0 0.0 0.0 0.00 0.00 0.00 97 1014.2
20260831134026 45 0 0.0 0.0 0.00 0.00 0.00 97 1014.2
20260831133527 45 0 0.0 0.0 0.00 0.00 0.00 97 1014.2
20260831133050 45 0 0.0 0.0 0.00 0.00 0.00 97 1014.2
20260831132524 45 0 0.0 1.0 0.00 0.00 0.00 98 1014.3
20260831132028 45 0 0.0 1.0 0.00 0.00 0.00 98 1014.2
20260831131554 45 0 0.0 0.0 0.00 0.00 0.00 98 1014.3
20260831131028 45 0 0.0 0.0 0.00 0.00 0.00 98 1014.3
20260831130528 45 0 0.0 0.0 0.00 0.00 0.00 97 1014.4
20260831130054 45 0 0.0 0.0 0.00 0.00 0.00 97 1014.4
20260831125530 45 0 0.0 0.0 0.00 0.00 0.00 97 1014.4
20260831125027 45 0 0.0 0.0 0.00 0.00 0.00 97 1014.4
20260831124556 45 0 0.0 0.0 0.00 0.00 0.00 97 1014.5
20260831124031 45 0 0.0 0.0 0.00 0.00 0.00 97 1014.4
20260831123527 45 0 0.0 0.0 0.00 0.00 0.00 97 1014.5
20260831123049 45 0 0.0 0.0 0.00 0.00 0.00 97 1014.5
20260831122528 45 0 0.0 0.0 0.00 0.00 0.00 97 1014.5
20260831122024 45 0 0.0 0.0 0.00 0.00 0.00 97 1014.7
20260831121554 45 0 0.0 0.0 0.00 0.00 0.00 97 1014.6
20260831121030 45 0 0.0 0.0 0.00 0.00 0.00 97 1014.7
20260831120529 45 0 0.0 0.0 0.00 0.00 0.00 97 1014.8
20260831120053 45 0 0.0 0.0 0.00 0.00 0.00 97 1014.9
20260831115527 45 0 0.0 0.0 0.00 0.00 0.00 97 1014.8
20260831115030 45 0 0.0 0.0 0.00 0.00 0.00 97 1014.9
20260831114550 46 0 0.0 0.0 0.00 0.00 0.00 97 1014.9
20260831114024 46 0 0.0 0.0 0.00 0.00 0.00 97 1014.9
20260831113524 46 0 0.0 0.0 0.00 0.00 0.00 97 1014.8
20260831113047 46 0 0.0 0.0 0.00 0.00 0.00 97 1014.9
20260831112528 46 0 0.0 0.0 0.00 0.00 0.00 97 1014.9
20260831112024 46 0 0.0 0.0 0.00 0.00 0.00 97 1015.0
20260831111550 47 0 0.0 0.0 0.00 0.00 0.00 97 1015.0
20260831111027 47 0 0.0 0.0 0.00 0.00 0.00 97 1015.0
20260831110529 47 0 0.0 0.0 0.00 0.00 0.00 97 1015.0
20260831110056 47 0 0.0 0.0 0.00 0.00 0.00 97 1014.9
20260831105524 47 0 0.0 0.0 0.00 0.00 0.00 97 1015.0
20260831105029 47 0 0.0 0.0 0.00 0.00 0.00 97 1015.0
20260831104558 47 0 0.0 0.0 0.00 0.00 0.00 97 1015.0
20260831104025 47 0 0.0 0.0 0.00 0.00 0.00 97 1015.0
20260831103523 47 0 0.0 0.0 0.00 0.00 0.00 97 1015.0
20260831103050 48 0 0.0 0.0 0.00 0.00 0.00 97 1015.1
20260831102523 47 0 0.0 0.0 0.00 0.00 0.00 97 1015.1
20260831102031 47 0 0.0 0.0 0.00 0.00 0.00 97 1015.2
20260831101607 48 0 0.0 0.0 0.00 0.00 0.00 97 1015.2
20260831101024 48 0 0.0 0.0 0.00 0.00 0.00 97 1015.3
20260831100523 48 0 0.0 0.0 0.00 0.00 0.00 97 1015.4
20260831100056 48 0 0.0 0.0 0.00 0.00 0.00 97 1015.4
20260831095522 48 0 0.0 0.0 0.00 0.00 0.00 97 1015.5
20260831095028 48 0 0.0 0.0 0.00 0.00 0.00 97 1015.5
20260831094552 48 0 0.0 0.0 0.00 0.00 0.00 96 1015.6
20260831094024 48 0 0.0 0.0 0.00 0.00 0.00 97 1015.6
20260831093525 48 0 0.0 0.0 0.00 0.00 0.00 97 1015.5
20260831093053 48 0 0.0 1.0 0.00 0.00 0.00 97 1015.6
20260831092526 48 0 0.0 1.0 0.00 0.00 0.00 97 1015.7
20260831092025 48 0 0.0 0.0 0.00 0.00 0.00 96 1015.8
20260831091547 49 0 0.0 1.0 0.00 0.00 0.00 96 1015.7
20260831091029 49 0 0.0 1.0 0.00 0.00 0.00 96 1015.6
20260831090527 49 331 0.0 1.0 0.00 0.00 0.00 96 1015.7
20260831090104 50 0 0.0 1.0 0.00 0.00 0.00 96 1015.7
20260831085528 50 331 0.0 1.0 0.00 0.00 0.00 97 1015.7
20260831085027 50 0 0.0 0.0 0.00 0.00 0.00 97 1015.8
20260831084549 50 0 0.0 0.0 0.00 0.00 0.00 97 1015.8
20260831084031 50 0 0.0 0.0 0.00 0.00 0.00 97 1015.8
20260831083529 50 0 0.0 0.0 0.00 0.00 0.00 96 1015.9
20260831083046 50 0 0.0 0.0 0.00 0.00 0.00 96 1016.0
20260831082527 50 0 0.0 0.0 0.00 0.00 0.00 96 1016.0
20260831082029 50 0 0.0 0.0 0.00 0.00 0.00 96 1016.2
20260831081550 50 0 0.0 0.0 0.00 0.00 0.00 96 1016.2
20260831081025 50 0 0.0 0.0 0.00 0.00 0.00 96 1016.3
20260831080525 51 0 0.0 0.0 0.00 0.00 0.00 96 1016.1
20260831080051 51 0 0.0 0.0 0.00 0.00 0.00 96 1016.3
20260831075528 51 0 0.0 0.0 0.00 0.00 0.00 96 1016.3
20260831075028 51 0 0.0 1.0 0.00 0.00 0.00 96 1016.3
20260831074552 51 0 0.0 1.0 0.00 0.00 0.00 96 1016.3
20260831074032 51 0 0.0 0.0 0.00 0.00 0.00 96 1016.4
20260831073532 51 0 0.0 0.0 0.00 0.00 0.00 96 1016.4
20260831073103 51 0 0.0 0.0 0.00 0.00 0.00 96 1016.4
20260831072528 51 0 0.0 0.0 0.00 0.00 0.00 96 1016.4
20260831072033 51 0 0.0 1.0 0.00 0.00 0.00 96 1016.5
20260831071554 51 0 0.0 1.0 0.00 0.00 0.00 96 1016.5
20260831071025 51 0 0.0 0.0 0.00 0.00 0.00 96 1016.5
20260831070524 51 0 0.0 0.0 0.00 0.00 0.00 95 1016.6
20260831070054 52 0 0.0 0.0 0.00 0.00 0.00 95 1016.6
20260831065529 52 0 0.0 0.0 0.00 0.00 0.00 96 1016.6
20260831065030 52 0 0.0 0.0 0.00 0.00 0.00 95 1016.7
20260831064600 52 0 0.0 0.0 0.00 0.00 0.00 95 1016.7
20260831064030 52 0 0.0 0.0 0.00 0.00 0.00 95 1016.8
20260831063527 52 0 0.0 0.0 0.00 0.00 0.00 95 1016.9
20260831063053 53 0 0.0 0.0 0.00 0.00 0.00 95 1016.9
20260831062527 53 0 0.0 0.0 0.00 0.00 0.00 95 1017.0
20260831062024 53 0 0.0 0.0 0.00 0.00 0.00 95 1017.0
20260831061559 53 0 0.0 0.0 0.00 0.00 0.00 94 1017.1
20260831061028 53 0 0.0 0.0 0.00 0.00 0.00 94 1017.1
20260831060524 53 0 0.0 0.0 0.00 0.00 0.00 94 1017.1
20260831060104 53 0 0.0 0.0 0.00 0.00 0.00 94 1017.1
20260831055524 54 0 0.0 0.0 0.00 0.00 0.00 94 1017.1
20260831055027 54 0 0.0 0.0 0.00 0.00 0.00 94 1017.1
20260831054553 54 0 0.0 0.0 0.00 0.00 0.00 94 1017.1
20260831054027 54 0 0.0 0.0 0.00 0.00 0.00 94 1017.3
20260831053527 54 0 0.0 0.0 0.00 0.00 0.00 93 1017.3
20260831053053 54 0 0.0 0.0 0.00 0.00 0.00 93 1017.3
20260831052531 54 0 0.0 0.0 0.00 0.00 0.00 93 1017.3
20260831052028 55 0 0.0 0.0 0.00 0.00 0.00 93 1017.4
20260831051559 55 0 0.0 0.0 0.00 0.00 0.00 93 1017.4
20260831051028 55 0 0.0 0.0 0.00 0.00 0.00 93 1017.5
20260831050523 55 0 0.0 0.0 0.00 0.00 0.00 92 1017.6
20260831050059 55 0 0.0 0.0 0.00 0.00 0.00 92 1017.4
20260831045525 55 0 0.0 0.0 0.00 0.00 0.00 92 1017.6
20260831045030 56 0 0.0 0.0 0.00 0.00 0.00 91 1017.5
20260831044550 56 0 0.0 0.0 0.00 0.00 0.00 91 1017.6
20260831044024 56 0 0.0 0.0 0.00 0.00 0.00 90 1017.6
20260831043524 56 0 0.0 0.0 0.00 0.00 0.00 90 1017.6
20260831043053 57 0 0.0 0.0 0.00 0.00 0.00 90 1017.7
20260831042524 57 0 0.0 0.0 0.00 0.00 0.00 89 1017.6
20260831042024 57 0 0.0 0.0 0.00 0.00 0.00 89 1017.6
20260831041600 57 0 0.0 0.0 0.00 0.00 0.00 89 1017.7
20260831041025 58 0 0.0 0.0 0.00 0.00 0.00 88 1017.7
20260831040530 58 0 0.0 0.0 0.00 0.00 0.00 88 1017.7
20260831040057 59 0 0.0 0.0 0.00 0.00 0.00 87 1017.8
20260831035524 59 0 0.0 0.0 0.00 0.00 0.00 86 1017.7
20260831035028 59 0 0.0 0.0 0.00 0.00 0.00 85 1017.6
20260831034549 60 0 0.0 0.0 0.00 0.00 0.00 85 1017.5
20260831034024 60 0 0.0 0.0 0.00 0.00 0.00 85 1017.5
20260831033524 61 0 0.0 1.0 0.00 0.00 0.00 84 1017.5
20260831033044 61 0 0.0 1.0 0.00 0.00 0.00 83 1017.5
20260831032526 62 0 0.0 1.0 0.00 0.00 0.00 82 1017.5
20260831032023 63 0 0.0 1.0 0.00 0.00 0.00 81 1017.6
20260831031553 63 0 0.0 1.0 0.00 0.00 0.00 78 1017.4
20260831031025 64 11 0.0 1.0 0.00 0.00 0.00 76 1017.4
20260831030524 64 0 0.0 1.0 0.00 0.00 0.00 74 1017.3
20260831030107 65 0 0.0 1.0 0.00 0.00 0.00 73 1017.4
20260831025524 66 343 0.0 1.0 0.00 0.00 0.00 73 1017.3
20260831025025 66 0 0.0 2.0 0.00 0.00 0.00 72 1017.3
20260831024611 67 341 1.0 3.0 0.00 0.00 0.00 71 1017.4
20260831024024 68 338 1.0 3.0 0.00 0.00 0.00 69 1017.4
20260831023525 68 11 1.0 3.0 0.00 0.00 0.00 68 1017.4
20260831023054 69 286 0.0 3.0 0.00 0.00 0.00 69 1017.4
20260831022525 70 323 0.0 2.0 0.00 0.00 0.00 64 1017.4
20260831022024 71 323 0.0 2.0 0.00 0.00 0.00 62 1017.4
20260831021554 71 345 1.0 3.0 0.00 0.00 0.00 62 1017.5
20260831021028 71 324 0.0 3.0 0.00 0.00 0.00 62 1017.6
20260831020528 71 312 2.0 7.0 0.00 0.00 0.00 59 1017.6
20260831020049 72 327 2.0 7.0 0.00 0.00 0.00 59 1017.5
20260831015528 72 333 2.0 7.0 0.00 0.00 0.00 58 1017.6
20260831015027 72 313 2.0 5.0 0.00 0.00 0.00 59 1017.6
20260831014552 72 302 0.0 4.0 0.00 0.00 0.00 59 1017.6
20260831014027 71 302 1.0 4.0 0.00 0.00 0.00 59 1017.7
20260831013528 71 318 3.0 4.0 0.00 0.00 0.00 59 1017.7
20260831013110 71 31 1.0 4.0 0.00 0.00 0.00 61 1017.8
20260831012528 70 342 2.0 5.0 0.00 0.00 0.00 59 1017.7
20260831012029 71 9 3.0 5.0 0.00 0.00 0.00 58 1017.7
20260831011551 72 306 2.0 4.0 0.00 0.00 0.00 58 1017.8
20260831011030 72 21 1.0 6.0 0.00 0.00 0.00 59 1017.9
20260831010529 71 300 1.0 6.0 0.00 0.00 0.00 59 1017.8
20260831010054 71 312 3.0 6.0 0.00 0.00 0.00 60 1017.8
20260831005528 71 300 0.0 4.0 0.00 0.00 0.00 60 1017.8
20260831005028 70 351 2.0 5.0 0.00 0.00 0.00 60 1018.0
20260831004554 70 22 2.0 5.0 0.00 0.00 0.00 60 1018.1
20260831004026 71 344 1.0 3.0 0.00 0.00 0.00 61 1018.1
20260831003529 71 341 0.0 3.0 0.00 0.00 0.00 59 1018.0
20260831003048 70 341 1.0 5.0 0.00 0.00 0.00 60 1018.2
20260831002527 70 26 2.0 5.0 0.00 0.00 0.00 60 1018.2
20260831002024 71 11 2.0 4.0 0.00 0.00 0.00 60 1018.1
20260831001559 71 340 2.0 3.0 0.00 0.00 0.00 59 1018.2
20260831001028 72 0 0.0 4.0 0.00 0.00 0.00 58 1018.3
20260831000527 72 313 1.0 4.0 0.00 0.00 0.00 60 1018.3
20260831000057 71 325 2.0 4.0 0.00 0.00 0.00 59 1018.3
20260830235524 72 0 0.0 2.0 0.00 0.00 0.00 60 1018.4
20260830235025 71 0 0.0 5.0 0.00 0.00 0.00 58 1018.4
20260830234603 71 309 2.0 6.0 0.00 0.00 0.00 57 1018.4
20260830234024 71 11 2.0 6.0 0.00 0.00 0.00 59 1018.5
20260830233528 72 340 2.0 9.0 0.00 0.00 0.00 58 1018.6
20260830233048 72 274 2.0 9.0 0.00 0.00 0.00 56 1018.6
20260830232529 72 265 3.0 7.0 0.00 0.00 0.00 55 1018.5
20260830232024 73 247 3.0 8.0 0.00 0.00 0.00 56 1018.6
20260830231557 73 217 4.0 8.0 0.00 0.00 0.00 56 1018.7
20260830231028 73 247 2.0 8.0 0.00 0.00 0.00 55 1018.6
20260830230524 73 260 4.0 8.0 0.00 0.00 0.00 54 1018.6
20260830230051 73 267 3.0 6.0 0.00 0.00 0.00 56 1018.7
20260830225528 72 265 2.0 6.0 0.00 0.00 0.00 56 1018.8
20260830225028 73 236 3.0 5.0 0.00 0.00 0.00 55 1018.7
20260830224554 72 272 1.0 8.0 0.00 0.00 0.00 57 1018.8
20260830224028 72 309 3.0 8.0 0.00 0.00 0.00 54 1019.0
20260830223528 73 305 2.0 8.0 0.00 0.00 0.00 56 1019.0
20260830223049 72 317 2.0 8.0 0.00 0.00 0.00 55 1019.2
20260830222527 73 298 2.0 5.0 0.00 0.00 0.00 56 1019.1
20260830222030 72 225 1.0 5.0 0.00 0.00 0.00 57 1019.2
20260830221554 71 250 2.0 5.0 0.00 0.00 0.00 57 1019.3
20260830221024 71 317 2.0 5.0 0.00 0.00 0.00 59 1019.4
20260830220524 71 301 2.0 5.0 0.00 0.00 0.00 59 1019.4
20260830220056 71 127 1.0 5.0 0.00 0.00 0.00 57 1019.5
20260830215528 71 290 2.0 5.0 0.00 0.00 0.00 57 1019.5
20260830215025 71 300 3.0 5.0 0.00 0.00 0.00 58 1019.6
20260830214547 71 300 1.0 5.0 0.00 0.00 0.00 60 1019.7
20260830214027 70 277 2.0 5.0 0.00 0.00 0.00 60 1019.7
20260830213527 70 25 3.0 5.0 0.00 0.00 0.00 58 1019.8
20260830213046 71 252 1.0 4.0 0.00 0.00 0.00 58 1019.9
20260830212527 70 167 0.0 3.0 0.00 0.00 0.00 60 1019.9
20260830212025 68 218 1.0 4.0 0.00 0.00 0.00 60 1020.0
20260830211552 69 244 1.0 4.0 0.00 0.00 0.00 61 1020.1
20260830211031 69 307 2.0 4.0 0.00 0.00 0.00 64 1020.1
20260830210530 69 308 2.0 4.0 0.00 0.00 0.00 59 1020.1
20260830210053 70 311 2.0 8.0 0.00 0.00 0.00 60 1020.1
20260830205532 70 0 1.0 8.0 0.00 0.00 0.00 60 1020.1
20260830205028 71 314 4.0 8.0 0.00 0.00 0.00 59 1020.1